| Date | Time | Temp. (oF) | Dew Point (oF) | Rel. Hum. (%) | Press. (in.) | Wind Dir. | Wind Speed (mph) | Hourly Rainfall (in.) |
|
|---|---|---|---|---|---|---|---|---|---|
| 1 | 03/19 | 00:00 | 39 | 39 | 100 | 30.29 | WNW | 3 | 0.00 |
| 2 | 03/18 | 23:00 | 39 | 39 | 100 | 30.30 | WNW | 4 | 0.00 |
| 3 | 03/18 | 22:00 | 39 | 39 | 100 | 30.28 | NNW | 3 | 0.00 |
| 4 | 03/18 | 21:00 | 39 | 39 | 100 | 30.28 | NNW | 2 | 0.00 |
| 5 | 03/18 | 20:00 | 39 | 39 | 100 | 30.28 | NNW | 2 | 0.00 |
| 6 | 03/18 | 19:00 | 39 | 39 | 100 | 30.27 | N | 2 | 0.00 |
| 7 | 03/18 | 18:00 | 40 | 40 | 100 | 30.26 | NE | 3 | 0.00 |
| 8 | 03/18 | 17:00 | 40 | 40 | 100 | 30.23 | N | 3 | 0.00 |
| 9 | 03/18 | 16:00 | 40 | 40 | 100 | 30.22 | ENE | 3 | 0.00 |
| 10 | 03/18 | 15:00 | 40 | 40 | 100 | 30.23 | NE | 1 | 0.00 |
| 11 | 03/18 | 14:00 | 39 | 39 | 100 | 30.23 | NE | 4 | 0.01 |
| 12 | 03/18 | 13:00 | 39 | 39 | 100 | 30.26 | NNE | 4 | 0.00 |
| 13 | 03/18 | 12:00 | 38 | 37 | 100 | 30.29 | ENE | 6 | 0.00 |
| 14 | 03/18 | 11:00 | 38 | 37 | 100 | 30.29 | NNE | 4 | 0.00 |
| 15 | 03/18 | 10:00 | 37 | 36 | 100 | 30.28 | N | 7 | 0.00 |
| 16 | 03/18 | 09:00 | 36 | 36 | 100 | 30.25 | NNW | 7 | 0.01 |
| 17 | 03/18 | 08:00 | 35 | 35 | 100 | 30.27 | ENE | 7 | 0.02 |
| 18 | 03/18 | 07:00 | 35 | 35 | 100 | 30.30 | NNE | 4 | 0.01 |
| 19 | 03/18 | 06:00 | 35 | 35 | 100 | 30.29 | NE | 5 | 0.01 |
| 20 | 03/18 | 05:00 | 34 | 33 | 100 | 30.29 | E | 4 | 0.01 |
| 21 | 03/18 | 04:00 | 34 | 33 | 100 | 30.30 | ENE | 2 | 0.01 |
| 22 | 03/18 | 03:00 | 34 | 33 | 100 | 30.32 | ENE | 5 | 0.01 |
| 23 | 03/18 | 02:00 | 33 | 32 | 100 | 30.37 | ENE | 5 | 0.03 |
| 24 | 03/18 | 01:00 | 33 | 32 | 100 | 30.38 | NNE | 2 | 0.00 |